Buffalo, NY

10:56 AM EDT on May 28, 2017 (GMT -0400)
Buffalo Niagara International

Weather History for KBUF - December, 2013

Change the Weather History Date:

Tuesday, December 3, 2013

  Actual Average Record
Temperature  
Mean Temperature 33 °F 34 °F  
Max Temperature 41 °F 40 °F 74 °F (1982)
Min Temperature 25 °F 28 °F -3 °F (1976)
Degree Days  
Heating Degree Days 32 31  
Month to date heating degree days 92 91  
Since 1 July heating degree days 1410 1424  
Cooling Degree Days 0 0  
Month to date cooling degree days 0 0  
Year to date cooling degree days 611 544  
Moisture  
Dew Point 26 °F    
Average Humidity 73    
Maximum Humidity 92    
Minimum Humidity 54    
Precipitation  
Precipitation 0.00 in 0.13 in 1.20 in (1990)
Month to date precipitation T 0.38  
Year to date precipitation 41.09 36.97  
Snow  
Snow 0.00 in 0.60 in 5.50 in (1906)
Month to date snowfall 0.0 1.8  
Since 1 July snowfall 10.0 10.6  
Snow Depth 0.00 in    
Sea Level Pressure  
Sea Level Pressure 29.97 in    
Wind  
Wind Speed 4 mph (NE)    
Max Wind Speed 10 mph    
Max Gust Speed 14 mph    
Visibility 9 miles    
Events      
T = Trace of Precipitation, MM = Missing Value Source: NWS Daily Summary

Daily Weather History Graph

Daily Weather History Graph

Search for Another Location

Airport or City:

Trip Planner

Search our weather history database for the weather conditions in past years. The results will help you decide how hot, cold, wet, or windy it might be!

Date:

Astronomy

Dec. 03, 2013 Rise Set
Actual Time 7:28 AM EST 4:40 PM EST
Civil Twilight 6:56 AM EST 5:12 PM EST
Nautical Twilight 6:21 AM EST 5:48 PM EST
Astronomical Twilight 5:47 AM EST 6:22 PM EST
Moon 7:55 AM EST (12/3) 5:43 PM EST (12/3)
Length of Visible Light 10h 16m
Length of Day
9h 12m
New Moon, 1% of the Moon is Illuminated
Dec 3
New Moon
Dec 9
First Quarter
Dec 17
Full
Dec 25
Last Quarter
Jan 1
New

Hourly Weather History & Observations

Time (EST) Temp. Windchill Dew Point Humidity Pressure Visibility Wind Dir Wind Speed Gust Speed Precip Events Conditions
12:54 AM 30.9 °F 26.2 °F 26.1 °F 82% 29.93 in 10.0 mi WNW 4.6 mph - N/A   Partly Cloudy
1:54 AM 30.0 °F 24.1 °F 26.1 °F 85% 29.94 in 10.0 mi WNW 5.8 mph - N/A   Scattered Clouds
2:54 AM 30.0 °F 26.5 °F 25.0 °F 82% 29.95 in 10.0 mi NW 3.5 mph - N/A   Scattered Clouds
3:54 AM 27.0 °F - 23.0 °F 85% 29.95 in 6.0 mi Calm Calm - N/A   Scattered Clouds
4:54 AM 26.1 °F - 23.0 °F 88% 29.95 in 5.0 mi Calm Calm - N/A   Scattered Clouds
5:54 AM 26.1 °F 21.9 °F 23.0 °F 88% 29.96 in 6.0 mi SSE 3.5 mph - N/A   Scattered Clouds
6:54 AM 26.1 °F 20.5 °F 23.0 °F 88% 29.96 in 6.0 mi SE 4.6 mph - N/A   Scattered Clouds
7:54 AM 26.1 °F - 23.0 °F 88% 29.97 in 6.0 mi Calm Calm - N/A   Scattered Clouds
8:54 AM 28.9 °F - 26.1 °F 89% 29.99 in 6.0 mi Calm Calm - N/A   Scattered Clouds
9:54 AM 30.9 °F - 27.0 °F 85% 29.98 in 5.0 mi Calm Calm - N/A   Scattered Clouds
10:54 AM 35.1 °F - 28.0 °F 76% 30.00 in 9.0 mi Calm Calm - N/A   Scattered Clouds
11:54 AM 37.0 °F - 27.0 °F 67% 29.97 in 10.0 mi Calm Calm - N/A   Scattered Clouds
12:54 PM 37.9 °F - 26.1 °F 62% 29.95 in 10.0 mi Calm Calm - N/A   Scattered Clouds
1:54 PM 39.9 °F - 25.0 °F 55% 29.96 in 10.0 mi Calm Calm - N/A   Scattered Clouds
2:54 PM 39.9 °F - 26.1 °F 58% 29.95 in 10.0 mi Calm Calm - N/A   Scattered Clouds
3:54 PM 39.0 °F 36.8 °F 26.1 °F 60% 29.97 in 10.0 mi NNE 3.5 mph - N/A   Scattered Clouds
4:54 PM 36.0 °F 31.1 °F 26.1 °F 67% 29.97 in 10.0 mi NE 5.8 mph - N/A   Scattered Clouds
5:54 PM 35.1 °F 29.3 °F 26.1 °F 70% 29.98 in 10.0 mi NE 6.9 mph - N/A   Mostly Cloudy
6:54 PM 34.0 °F 26.6 °F 26.1 °F 73% 30.00 in 10.0 mi NE 9.2 mph - N/A   Mostly Cloudy
7:54 PM 34.0 °F 26.6 °F 27.0 °F 75% 30.00 in 10.0 mi ENE 9.2 mph - N/A   Overcast
8:54 PM 34.0 °F 26.6 °F 27.0 °F 75% 29.99 in 10.0 mi ENE 9.2 mph - N/A   Overcast
9:54 PM 34.0 °F 26.6 °F 28.0 °F 79% 29.99 in 10.0 mi ENE 9.2 mph - N/A   Overcast
10:54 PM 34.0 °F 26.6 °F 28.0 °F 79% 29.98 in 10.0 mi ENE 9.2 mph - N/A   Overcast
11:54 PM 34.0 °F 28.0 °F 28.0 °F 79% 29.97 in 10.0 mi ENE 6.9 mph - N/A   Overcast